Location: Bacea
(45.9500°N, 22.6667°E)
Time: 10:24:34
(UTC+00:00)

CSL-04 Rocket - Pass Details

Date: 16 October 2021
Orbit: 805 x 861 km, 98.9° (Epoch: 07 December)

Event Time Altitude Azimuth Distance (km) Brightness Sun altitude
Exits shadow 17:48:40 29° 159° (SSE) 1,514 4.7 -22.8°
Maximum altitude 17:51:37 84° 74° (ENE) 867 3.6 -23.3°
Drops below altitude 10° 17:57:12 10° 347° (NNW) 2,507 6.4 -24.3°
Sets 17:59:36 0° 347° (NNW) 3,449 7.2 -24.7°
